Location: *
(53.4003°S, 165.3236°W)
Time: 03:10:43
(UTC+00:00)

Cosmos 1346 Rocket - Pass Details

Date: 11 December 2023
Orbit: 512 x 526 km, 81.2° (Epoch: 24 February)

Event Time Altitude Azimuth Distance (km) Brightness Sun altitude
Exits shadow 12:22:58 13° 9° (N) 1,580 4.6 -11.2°
Maximum altitude 12:26:16 51° 82° (E) 683 3.4 -11.1°
Drops below altitude 10° 12:30:07 10° 158° (SSE) 1,809 7.1 -10.8°
Sets 12:32:20 0° 163° (SSE) 2,711 8.6 -10.7°
